Location: Znojmo
(48.8500°N, 16.0500°E)
Time: 05:59:20
(UTC+02:00)

ISS - Pass Details

Date: 30 March 2019
Orbit: 408 x 410 km, 51.6° (Epoch: 23 April)

Event Time Altitude Azimuth Distance (km) Brightness Sun altitude
Rises 19:14:05 0° 275° (W) 2,337 2.0 -9.0°
Reaches altitude 10° 19:16:12 10° 281° (W) 1,475 0.7 -9.4°
Maximum altitude 19:19:26 50° 358° (N) 533 -3.1 -9.9°
Enters shadow 19:22:25 12° 74° (ENE) 1,379 -1.6 -10.3°
